Location: Boca de Tacagua
(10.5333°N, 66.9833°W)
Time: 05:43:25
(UTC+00:00)

Ariane H10-3 - Pass Details

Date: 06 July 2022
Orbit: 475 x 36438 km, 5.2° (Epoch: 12 August)

Event Time Altitude Azimuth Distance (km) Brightness Sun altitude
Rises 17:17:45 0° 251° (WSW) 3,294 5.4 73.7°
Reaches altitude 10° 17:19:13 10° 247° (WSW) 2,734 5.1 73.5°
Maximum altitude 01:37:16 51° 110° (ESE) 27,748 9.3 -35.7°
Drops below altitude 10° 03:24:53 10° 104° (ESE) 11,594 7.7 -52.9°
Sets 03:30:51 0° 102° (ESE) 10,970 7.7 -53.5°
